Year,Month,Day,Hour,Minute,Value (Times are PST for temperature in C)
2019,04,30,00,00,8.40
2019,04,30,00,01,8.40
2019,04,30,00,02,8.40
2019,04,30,00,03,8.40
2019,04,30,00,04,8.40
2019,04,30,00,05,8.40
2019,04,30,00,06,8.50
2019,04,30,00,07,8.50
2019,04,30,00,08,8.60
2019,04,30,00,09,8.60
2019,04,30,00,10,8.60
2019,04,30,00,11,8.60
2019,04,30,00,12,8.60
2019,04,30,00,13,8.70
2019,04,30,00,14,8.70
2019,04,30,00,15,8.70
2019,04,30,00,16,8.70
2019,04,30,00,17,8.70
2019,04,30,00,18,8.80
2019,04,30,00,19,8.80
2019,04,30,00,20,8.80
2019,04,30,00,21,8.90
2019,04,30,00,22,8.90
2019,04,30,00,23,8.90
2019,04,30,00,24,8.90
2019,04,30,00,25,8.90
2019,04,30,00,26,8.90
2019,04,30,00,27,8.90
2019,04,30,00,28,8.90
2019,04,30,00,29,8.90
2019,04,30,00,30,8.90
2019,04,30,00,31,8.90
2019,04,30,00,32,8.90
2019,04,30,00,33,8.90
2019,04,30,00,34,8.80
2019,04,30,00,35,8.80
2019,04,30,00,36,8.80
2019,04,30,00,37,8.80
2019,04,30,00,38,8.80
2019,04,30,00,39,8.80
2019,04,30,00,40,8.80
2019,04,30,00,41,8.80
2019,04,30,00,42,8.80
2019,04,30,00,43,8.80
2019,04,30,00,44,8.80
2019,04,30,00,45,8.80
2019,04,30,00,46,8.80
2019,04,30,00,47,8.70
2019,04,30,00,48,8.70
2019,04,30,00,49,8.70
2019,04,30,00,50,8.70
2019,04,30,00,51,8.70
2019,04,30,00,52,8.70
2019,04,30,00,53,8.70
2019,04,30,00,54,8.70
2019,04,30,00,55,8.60
2019,04,30,00,56,8.60
2019,04,30,00,57,8.60
2019,04,30,00,58,8.60
2019,04,30,00,59,8.60
2019,04,30,01,00,8.50
2019,04,30,01,01,8.50
2019,04,30,01,02,8.50
2019,04,30,01,03,8.50
2019,04,30,01,04,8.40
2019,04,30,01,05,8.40
2019,04,30,01,06,8.40
2019,04,30,01,07,8.40
2019,04,30,01,08,8.40
2019,04,30,01,09,8.30
2019,04,30,01,10,8.30
2019,04,30,01,11,8.30
2019,04,30,01,12,8.30
2019,04,30,01,13,8.30
2019,04,30,01,14,8.30
2019,04,30,01,15,8.20
2019,04,30,01,16,8.20
2019,04,30,01,17,8.20
2019,04,30,01,18,8.20
2019,04,30,01,19,8.20
2019,04,30,01,20,8.20
2019,04,30,01,21,8.10
2019,04,30,01,22,8.10
2019,04,30,01,23,8.10
2019,04,30,01,24,8.10
2019,04,30,01,25,8.10
2019,04,30,01,26,8.10
2019,04,30,01,27,8.00
2019,04,30,01,28,8.00
2019,04,30,01,29,8.00
2019,04,30,01,30,8.00
2019,04,30,01,31,7.90
2019,04,30,01,32,7.90
2019,04,30,01,33,7.90
2019,04,30,01,34,7.90
2019,04,30,01,35,7.90
2019,04,30,01,36,7.90
2019,04,30,01,37,7.90
2019,04,30,01,38,7.80
2019,04,30,01,39,7.80
2019,04,30,01,40,7.80
2019,04,30,01,41,7.80
2019,04,30,01,42,7.80
2019,04,30,01,43,7.80
2019,04,30,01,44,7.80
2019,04,30,01,45,7.80
2019,04,30,01,46,7.80
2019,04,30,01,47,7.80
2019,04,30,01,48,7.80
2019,04,30,01,49,7.80
2019,04,30,01,50,7.70
2019,04,30,01,51,7.70
2019,04,30,01,52,7.70
2019,04,30,01,53,7.70
2019,04,30,01,54,7.70
2019,04,30,01,55,7.70
2019,04,30,01,56,7.70
2019,04,30,01,57,7.70
2019,04,30,01,58,7.60
2019,04,30,01,59,7.60
2019,04,30,02,00,7.60
2019,04,30,02,01,7.60
2019,04,30,02,02,7.60
2019,04,30,02,03,7.60
2019,04,30,02,04,7.60
2019,04,30,02,05,7.60
2019,04,30,02,06,7.60
2019,04,30,02,07,7.50
2019,04,30,02,08,7.50
2019,04,30,02,09,7.50
2019,04,30,02,10,7.50
2019,04,30,02,11,7.50
2019,04,30,02,12,7.40
2019,04,30,02,13,7.40
2019,04,30,02,14,7.40
2019,04,30,02,15,7.40
2019,04,30,02,16,7.40
2019,04,30,02,17,7.40
2019,04,30,02,18,7.40
2019,04,30,02,19,7.40
2019,04,30,02,20,7.30
2019,04,30,02,21,7.30
2019,04,30,02,22,7.30
2019,04,30,02,23,7.30
2019,04,30,02,24,7.30
2019,04,30,02,25,7.30
2019,04,30,02,26,7.30
2019,04,30,02,27,7.30
2019,04,30,02,28,7.30
2019,04,30,02,29,7.30
2019,04,30,02,30,7.20
2019,04,30,02,31,7.20
2019,04,30,02,32,7.20
2019,04,30,02,33,7.20
2019,04,30,02,34,7.20
2019,04,30,02,35,7.20
2019,04,30,02,36,7.20
2019,04,30,02,37,7.20
2019,04,30,02,38,7.20
2019,04,30,02,39,7.20
2019,04,30,02,40,7.10
2019,04,30,02,41,7.10
2019,04,30,02,42,7.10
2019,04,30,02,43,7.10
2019,04,30,02,44,7.10
2019,04,30,02,45,7.10
2019,04,30,02,46,7.10
2019,04,30,02,47,7.10
2019,04,30,02,48,7.10
2019,04,30,02,49,7.10
2019,04,30,02,50,7.10
2019,04,30,02,51,7.10
2019,04,30,02,52,7.10
2019,04,30,02,53,7.10
2019,04,30,02,54,7.10
2019,04,30,02,55,7.10
2019,04,30,02,56,7.10
2019,04,30,02,57,7.10
2019,04,30,02,58,7.10
2019,04,30,02,59,7.20
2019,04,30,03,00,7.20
2019,04,30,03,01,7.20
2019,04,30,03,02,7.20
2019,04,30,03,03,7.20
2019,04,30,03,04,7.20
2019,04,30,03,05,7.20
2019,04,30,03,06,7.20
2019,04,30,03,07,7.20
2019,04,30,03,08,7.20
2019,04,30,03,09,7.20
2019,04,30,03,10,7.20
2019,04,30,03,11,7.20
2019,04,30,03,12,7.20
2019,04,30,03,13,7.20
2019,04,30,03,14,7.20
2019,04,30,03,15,7.20
2019,04,30,03,16,7.20
2019,04,30,03,17,7.20
2019,04,30,03,18,7.20
2019,04,30,03,19,7.20
2019,04,30,03,20,7.20
2019,04,30,03,21,7.20
2019,04,30,03,22,7.20
2019,04,30,03,23,7.20
2019,04,30,03,24,7.20
2019,04,30,03,25,7.20
2019,04,30,03,26,7.20
2019,04,30,03,27,7.20
2019,04,30,03,28,7.30
2019,04,30,03,29,7.30
2019,04,30,03,30,7.30
2019,04,30,03,31,7.30
2019,04,30,03,32,7.30
2019,04,30,03,33,7.30
2019,04,30,03,34,7.30
2019,04,30,03,35,7.30
2019,04,30,03,36,7.30
2019,04,30,03,37,7.30
2019,04,30,03,38,7.30
2019,04,30,03,39,7.30
2019,04,30,03,40,7.30
2019,04,30,03,41,7.30
2019,04,30,03,42,7.30
2019,04,30,03,43,7.30
2019,04,30,03,44,7.30
2019,04,30,03,45,7.30
2019,04,30,03,46,7.40
2019,04,30,03,47,7.40
2019,04,30,03,48,7.40
2019,04,30,03,49,7.40
2019,04,30,03,50,7.40
2019,04,30,03,51,7.40
2019,04,30,03,52,7.40
2019,04,30,03,53,7.40
2019,04,30,03,54,7.40
2019,04,30,03,55,7.40
2019,04,30,03,56,7.40
2019,04,30,03,57,7.40
2019,04,30,03,58,7.40
2019,04,30,03,59,7.40
2019,04,30,04,00,7.40
2019,04,30,04,01,7.40
2019,04,30,04,02,7.40
2019,04,30,04,03,7.40
2019,04,30,04,04,7.40
2019,04,30,04,05,7.40
2019,04,30,04,06,7.40
2019,04,30,04,07,7.40
2019,04,30,04,08,7.40
2019,04,30,04,09,7.40
2019,04,30,04,10,7.40
2019,04,30,04,11,7.40
2019,04,30,04,12,7.40
2019,04,30,04,13,7.40
2019,04,30,04,14,7.40
2019,04,30,04,15,7.40
2019,04,30,04,16,7.40
2019,04,30,04,17,7.40
2019,04,30,04,18,7.40
2019,04,30,04,19,7.40
2019,04,30,04,20,7.30
2019,04,30,04,21,7.30
2019,04,30,04,22,7.30
2019,04,30,04,23,7.30
2019,04,30,04,24,7.30
2019,04,30,04,25,7.30
2019,04,30,04,26,7.30
2019,04,30,04,27,7.30
2019,04,30,04,28,7.20
2019,04,30,04,29,7.20
2019,04,30,04,30,7.20
2019,04,30,04,31,7.20
2019,04,30,04,32,7.20
2019,04,30,04,33,7.20
2019,04,30,04,34,7.20
2019,04,30,04,35,7.20
2019,04,30,04,36,7.10
2019,04,30,04,37,7.10
2019,04,30,04,38,7.10
2019,04,30,04,39,7.10
2019,04,30,04,40,7.10
2019,04,30,04,41,7.10
2019,04,30,04,42,7.10
2019,04,30,04,43,7.10
2019,04,30,04,44,7.10
2019,04,30,04,45,7.10
2019,04,30,04,46,7.10
2019,04,30,04,47,7.10
2019,04,30,04,48,7.10
2019,04,30,04,49,7.10
2019,04,30,04,50,7.10
2019,04,30,04,51,7.10
2019,04,30,04,52,7.00
2019,04,30,04,53,7.00
2019,04,30,04,54,7.00
2019,04,30,04,55,7.00
2019,04,30,04,56,7.00
2019,04,30,04,57,7.00
2019,04,30,04,58,7.00
2019,04,30,04,59,6.90
2019,04,30,05,00,6.90
2019,04,30,05,01,6.90
2019,04,30,05,02,6.90
2019,04,30,05,03,6.90
2019,04,30,05,04,6.90
2019,04,30,05,05,6.90
2019,04,30,05,06,6.90
2019,04,30,05,07,6.80
2019,04,30,05,08,6.80
2019,04,30,05,09,6.80
2019,04,30,05,10,6.80
2019,04,30,05,11,6.80
2019,04,30,05,12,6.80
2019,04,30,05,13,6.80
2019,04,30,05,14,6.80
2019,04,30,05,15,6.80
2019,04,30,05,16,6.80
2019,04,30,05,17,6.80
2019,04,30,05,18,6.80
2019,04,30,05,19,6.90
2019,04,30,05,20,6.90
2019,04,30,05,21,6.90
2019,04,30,05,22,6.90
2019,04,30,05,23,6.90
2019,04,30,05,24,6.90
2019,04,30,05,25,6.90
2019,04,30,05,26,6.90
2019,04,30,05,27,6.90
2019,04,30,05,28,6.90
2019,04,30,05,29,6.90
2019,04,30,05,30,6.90
2019,04,30,05,31,6.90
2019,04,30,05,32,6.90
2019,04,30,05,33,6.90
2019,04,30,05,34,6.90
2019,04,30,05,35,6.90
2019,04,30,05,36,6.90
2019,04,30,05,37,6.90
2019,04,30,05,38,6.80
2019,04,30,05,39,6.80
2019,04,30,05,40,6.80
2019,04,30,05,41,6.80
2019,04,30,05,42,6.80
2019,04,30,05,43,6.80
2019,04,30,05,44,6.80
2019,04,30,05,45,6.80
2019,04,30,05,46,6.80
2019,04,30,05,47,6.80
2019,04,30,05,48,6.80
2019,04,30,05,49,6.80
2019,04,30,05,50,6.80
2019,04,30,05,51,6.80
2019,04,30,05,52,6.80
2019,04,30,05,53,6.80
2019,04,30,05,54,6.80
2019,04,30,05,55,6.80
2019,04,30,05,56,6.80
2019,04,30,05,57,6.70
2019,04,30,05,58,6.70
2019,04,30,05,59,6.70
2019,04,30,06,00,6.70
2019,04,30,06,01,6.70
2019,04,30,06,02,6.70
2019,04,30,06,03,6.70
2019,04,30,06,04,6.70
2019,04,30,06,05,6.70
2019,04,30,06,06,6.70
2019,04,30,06,07,6.70
2019,04,30,06,08,6.60
2019,04,30,06,09,6.60
2019,04,30,06,10,6.60
2019,04,30,06,11,6.60
2019,04,30,06,12,6.60
2019,04,30,06,13,6.60
2019,04,30,06,14,6.60
2019,04,30,06,15,6.60
2019,04,30,06,16,6.50
2019,04,30,06,17,6.50
2019,04,30,06,18,6.50
2019,04,30,06,19,6.50
2019,04,30,06,20,6.50
2019,04,30,06,21,6.50
2019,04,30,06,22,6.40
2019,04,30,06,23,6.40
2019,04,30,06,24,6.40
2019,04,30,06,25,6.40
2019,04,30,06,26,6.40
2019,04,30,06,27,6.40
2019,04,30,06,28,6.40
2019,04,30,06,29,6.40
2019,04,30,06,30,6.50
2019,04,30,06,31,6.50
2019,04,30,06,32,6.60
2019,04,30,06,33,6.70
2019,04,30,06,34,6.70
2019,04,30,06,35,6.80
2019,04,30,06,36,6.80
2019,04,30,06,37,6.90
2019,04,30,06,38,7.00
2019,04,30,06,39,7.10
2019,04,30,06,40,7.10
2019,04,30,06,41,7.20
2019,04,30,06,42,7.20
2019,04,30,06,43,7.20
2019,04,30,06,44,7.30
2019,04,30,06,45,7.30
2019,04,30,06,46,7.40
2019,04,30,06,47,7.50
2019,04,30,06,48,7.60
2019,04,30,06,49,7.70
2019,04,30,06,50,7.70
2019,04,30,06,51,7.80
2019,04,30,06,52,7.80
2019,04,30,06,53,7.90
2019,04,30,06,54,7.90
2019,04,30,06,55,7.90
2019,04,30,06,56,7.90
2019,04,30,06,57,8.00
2019,04,30,06,58,8.00
2019,04,30,06,59,8.10
2019,04,30,07,00,8.10
2019,04,30,07,01,8.20
2019,04,30,07,02,8.20
2019,04,30,07,03,8.20
2019,04,30,07,04,8.20
2019,04,30,07,05,8.30
2019,04,30,07,06,8.40
2019,04,30,07,07,8.40
2019,04,30,07,08,8.40
2019,04,30,07,09,8.50
2019,04,30,07,10,8.50
2019,04,30,07,11,8.50
2019,04,30,07,12,8.50
2019,04,30,07,13,8.50
2019,04,30,07,14,8.50
2019,04,30,07,15,8.50
2019,04,30,07,16,8.50
2019,04,30,07,17,8.50
2019,04,30,07,18,8.50
2019,04,30,07,19,8.40
2019,04,30,07,20,8.40
2019,04,30,07,21,8.40
2019,04,30,07,22,8.40
2019,04,30,07,23,8.40
2019,04,30,07,24,8.40
2019,04,30,07,25,8.30
2019,04,30,07,26,8.30
2019,04,30,07,27,8.30
2019,04,30,07,28,8.30
2019,04,30,07,29,8.30
2019,04,30,07,30,8.30
2019,04,30,07,31,8.30
2019,04,30,07,32,8.20
2019,04,30,07,33,8.20
2019,04,30,07,34,8.20
2019,04,30,07,35,8.20
2019,04,30,07,36,8.20
2019,04,30,07,37,8.20
2019,04,30,07,38,8.20
2019,04,30,07,39,8.20
2019,04,30,07,40,8.20
2019,04,30,07,41,8.10
2019,04,30,07,42,8.10
2019,04,30,07,43,8.20
2019,04,30,07,44,8.20
2019,04,30,07,45,8.20
2019,04,30,07,46,8.20
2019,04,30,07,47,8.20
2019,04,30,07,48,8.20
2019,04,30,07,49,8.20
2019,04,30,07,50,8.20
2019,04,30,07,51,8.20
2019,04,30,07,52,8.20
2019,04,30,07,53,8.30
2019,04,30,07,54,8.30
2019,04,30,07,55,8.30
2019,04,30,07,56,8.30
2019,04,30,07,57,8.30
2019,04,30,07,58,8.40
2019,04,30,07,59,8.40
2019,04,30,08,00,8.40
2019,04,30,08,01,8.50
2019,04,30,08,02,8.60
2019,04,30,08,03,8.60
2019,04,30,08,04,8.70
2019,04,30,08,05,8.70
2019,04,30,08,06,8.70
2019,04,30,08,07,8.80
2019,04,30,08,08,8.80
2019,04,30,08,09,8.90
2019,04,30,08,10,8.90
2019,04,30,08,11,9.00
2019,04,30,08,12,9.10
2019,04,30,08,13,9.10
2019,04,30,08,14,9.10
2019,04,30,08,15,9.20
2019,04,30,08,16,9.20
2019,04,30,08,17,9.30
2019,04,30,08,18,9.30
2019,04,30,08,19,9.30
2019,04,30,08,20,9.30
2019,04,30,08,21,9.30
2019,04,30,08,22,9.30
2019,04,30,08,23,9.30
2019,04,30,08,24,9.40
2019,04,30,08,25,9.40
2019,04,30,08,26,9.50
2019,04,30,08,27,9.60
2019,04,30,08,28,9.60
2019,04,30,08,29,9.70
2019,04,30,08,30,9.70
2019,04,30,08,31,9.70
2019,04,30,08,32,9.70
2019,04,30,08,33,9.70
2019,04,30,08,34,9.80
2019,04,30,08,35,9.80
2019,04,30,08,36,9.80
2019,04,30,08,37,9.80
2019,04,30,08,38,9.80
2019,04,30,08,39,9.80
2019,04,30,08,40,9.80
2019,04,30,08,41,9.80
2019,04,30,08,42,9.90
2019,04,30,08,43,9.90
2019,04,30,08,44,9.90
2019,04,30,08,45,9.90
2019,04,30,08,46,9.90
2019,04,30,08,47,9.90
2019,04,30,08,48,9.90
2019,04,30,08,49,10.00
2019,04,30,08,50,10.00
2019,04,30,08,51,10.10
2019,04,30,08,52,10.10
2019,04,30,08,53,10.10
2019,04,30,08,54,10.20
2019,04,30,08,55,10.20
2019,04,30,08,56,10.20
2019,04,30,08,57,10.30
2019,04,30,08,58,10.30
2019,04,30,08,59,10.30
2019,04,30,09,00,10.40
2019,04,30,09,01,10.40
2019,04,30,09,02,10.50
2019,04,30,09,03,10.50
2019,04,30,09,04,10.50
2019,04,30,09,05,10.60
2019,04,30,09,06,10.60
2019,04,30,09,07,10.60
2019,04,30,09,08,10.70
2019,04,30,09,09,10.70
2019,04,30,09,10,10.70
2019,04,30,09,11,10.70
2019,04,30,09,12,10.80
2019,04,30,09,13,10.80
2019,04,30,09,14,10.80
2019,04,30,09,15,10.80
2019,04,30,09,16,10.80
2019,04,30,09,17,10.90
2019,04,30,09,18,10.90
2019,04,30,09,19,10.90
2019,04,30,09,20,10.90
2019,04,30,09,21,10.90
2019,04,30,09,22,11.00
2019,04,30,09,23,11.00
2019,04,30,09,24,11.00
2019,04,30,09,25,11.10
2019,04,30,09,26,11.10
2019,04,30,09,27,11.10
2019,04,30,09,28,11.10
2019,04,30,09,29,11.10
2019,04,30,09,30,11.10
2019,04,30,09,31,11.10
2019,04,30,09,32,11.10
2019,04,30,09,33,11.10
2019,04,30,09,34,11.10
2019,04,30,09,35,11.10
2019,04,30,09,36,11.10
2019,04,30,09,37,11.10
2019,04,30,09,38,11.10
2019,04,30,09,39,11.10
2019,04,30,09,40,11.10
2019,04,30,09,41,11.10
2019,04,30,09,42,11.10
2019,04,30,09,43,11.10
2019,04,30,09,44,11.10
2019,04,30,09,45,11.10
2019,04,30,09,46,11.10
2019,04,30,09,47,11.20
2019,04,30,09,48,11.20
2019,04,30,09,49,11.20
2019,04,30,09,50,11.20
2019,04,30,09,51,11.20
2019,04,30,09,52,11.20
2019,04,30,09,53,11.20
2019,04,30,09,54,11.20
2019,04,30,09,55,11.20
2019,04,30,09,56,11.20
2019,04,30,09,57,11.20
2019,04,30,09,58,11.20
2019,04,30,09,59,11.20
2019,04,30,10,00,11.20
2019,04,30,10,01,11.20
2019,04,30,10,02,11.30
2019,04,30,10,03,11.30
2019,04,30,10,04,11.30
2019,04,30,10,05,11.30
2019,04,30,10,06,11.30
2019,04,30,10,07,11.30
2019,04,30,10,08,11.30
2019,04,30,10,09,11.30
2019,04,30,10,10,11.30
2019,04,30,10,11,11.40
2019,04,30,10,12,11.40
2019,04,30,10,13,11.40
2019,04,30,10,14,11.40
2019,04,30,10,15,11.40
2019,04,30,10,16,11.40
2019,04,30,10,17,11.40
2019,04,30,10,18,11.50
2019,04,30,10,19,11.50
2019,04,30,10,20,11.50
2019,04,30,10,21,11.50
2019,04,30,10,22,11.50
2019,04,30,10,23,11.50
2019,04,30,10,24,11.50
2019,04,30,10,25,11.60
2019,04,30,10,26,11.60
2019,04,30,10,27,11.60
2019,04,30,10,28,11.60
2019,04,30,10,29,11.60
2019,04,30,10,30,11.60
2019,04,30,10,31,11.60
2019,04,30,10,32,11.60
2019,04,30,10,33,11.70
2019,04,30,10,34,11.70
2019,04,30,10,35,11.70
2019,04,30,10,36,11.70
2019,04,30,10,37,11.70
2019,04,30,10,38,11.70
2019,04,30,10,39,11.70
2019,04,30,10,40,11.80
2019,04,30,10,41,11.80
2019,04,30,10,42,11.80
2019,04,30,10,43,11.80
2019,04,30,10,44,11.80
2019,04,30,10,45,11.80
2019,04,30,10,46,11.90
2019,04,30,10,47,11.90
2019,04,30,10,48,11.90
2019,04,30,10,49,11.90
2019,04,30,10,50,11.90
2019,04,30,10,51,12.00
2019,04,30,10,52,12.00
2019,04,30,10,53,12.00
2019,04,30,10,54,12.00
2019,04,30,10,55,12.00
2019,04,30,10,56,12.10
2019,04,30,10,57,12.10
2019,04,30,10,58,12.10
2019,04,30,10,59,12.10
2019,04,30,11,00,12.10
2019,04,30,11,01,12.20
2019,04,30,11,02,12.20
2019,04,30,11,03,12.20
2019,04,30,11,04,12.20
2019,04,30,11,05,12.20
2019,04,30,11,06,12.30
2019,04,30,11,07,12.30
2019,04,30,11,08,12.30
2019,04,30,11,09,12.30
2019,04,30,11,10,12.30
2019,04,30,11,11,12.30
2019,04,30,11,12,12.30
2019,04,30,11,13,12.40
2019,04,30,11,14,12.40
2019,04,30,11,15,12.40
2019,04,30,11,16,12.40
2019,04,30,11,17,12.50
2019,04,30,11,18,12.50
2019,04,30,11,19,12.50
2019,04,30,11,20,12.60
2019,04,30,11,21,12.60
2019,04,30,11,22,12.60
2019,04,30,11,23,12.60
2019,04,30,11,24,12.60
2019,04,30,11,25,12.60
2019,04,30,11,26,12.70
2019,04,30,11,27,12.70
2019,04,30,11,28,12.70
2019,04,30,11,29,12.70
2019,04,30,11,30,12.70
2019,04,30,11,31,12.80
2019,04,30,11,32,12.80
2019,04,30,11,33,12.80
2019,04,30,11,34,12.80
2019,04,30,11,35,12.80
2019,04,30,11,36,12.80
2019,04,30,11,37,12.90
2019,04,30,11,38,12.90
2019,04,30,11,39,12.90
2019,04,30,11,40,13.00
2019,04,30,11,41,13.00
2019,04,30,11,42,13.10
2019,04,30,11,43,13.10
2019,04,30,11,44,13.20
2019,04,30,11,45,13.20
2019,04,30,11,46,13.30
2019,04,30,11,47,13.30
2019,04,30,11,48,13.30
2019,04,30,11,49,13.40
2019,04,30,11,50,13.40
2019,04,30,11,51,13.40
2019,04,30,11,52,13.40
2019,04,30,11,53,13.50
2019,04,30,11,54,13.50
2019,04,30,11,55,13.50
2019,04,30,11,56,13.50
2019,04,30,11,57,13.60
2019,04,30,11,58,13.60
2019,04,30,11,59,13.60
2019,04,30,12,00,13.60
2019,04,30,12,01,13.70
2019,04,30,12,02,13.70
2019,04,30,12,03,13.70
2019,04,30,12,04,13.70
2019,04,30,12,05,13.80
2019,04,30,12,06,13.80
2019,04,30,12,07,13.80
2019,04,30,12,08,13.80
2019,04,30,12,09,13.90
2019,04,30,12,10,13.90
2019,04,30,12,11,13.90
2019,04,30,12,12,13.90
2019,04,30,12,13,14.00
2019,04,30,12,14,14.00
2019,04,30,12,15,14.10
2019,04,30,12,16,14.10
2019,04,30,12,17,14.10
2019,04,30,12,18,14.10
2019,04,30,12,19,14.10
2019,04,30,12,20,14.10
2019,04,30,12,21,14.20
2019,04,30,12,22,14.20
2019,04,30,12,23,14.20
2019,04,30,12,24,14.30
2019,04,30,12,25,14.30
2019,04,30,12,26,14.30
2019,04,30,12,27,14.40
2019,04,30,12,28,14.40
2019,04,30,12,29,14.40
2019,04,30,12,30,14.50
2019,04,30,12,31,14.50
2019,04,30,12,32,14.50
2019,04,30,12,33,14.60
2019,04,30,12,34,14.60
2019,04,30,12,35,14.60
2019,04,30,12,36,14.60
2019,04,30,12,37,14.60
2019,04,30,12,38,14.60
2019,04,30,12,39,14.60
2019,04,30,12,40,14.60
2019,04,30,12,41,14.60
2019,04,30,12,42,14.70
2019,04,30,12,43,14.70
2019,04,30,12,44,14.70
2019,04,30,12,45,14.80
2019,04,30,12,46,14.80
2019,04,30,12,47,14.90
2019,04,30,12,48,14.90
2019,04,30,12,49,15.00
2019,04,30,12,50,15.00
2019,04,30,12,51,15.10
2019,04,30,12,52,15.10
2019,04,30,12,53,15.10
2019,04,30,12,54,15.20
2019,04,30,12,55,15.20
2019,04,30,12,56,15.20
2019,04,30,12,57,15.20
2019,04,30,12,58,15.30
2019,04,30,12,59,15.30
2019,04,30,13,00,15.40
2019,04,30,13,01,15.40
2019,04,30,13,02,15.50
2019,04,30,13,03,15.50
2019,04,30,13,04,15.60
2019,04,30,13,05,15.60
2019,04,30,13,06,15.60
2019,04,30,13,07,15.70
2019,04,30,13,08,15.70
2019,04,30,13,09,15.80
2019,04,30,13,10,15.80
2019,04,30,13,11,15.90
2019,04,30,13,12,15.90
2019,04,30,13,13,16.00
2019,04,30,13,14,16.10
2019,04,30,13,15,16.10
2019,04,30,13,16,16.20
2019,04,30,13,17,16.20
2019,04,30,13,18,16.30
2019,04,30,13,19,16.30
2019,04,30,13,20,16.40
2019,04,30,13,21,16.40
2019,04,30,13,22,16.40
2019,04,30,13,23,16.40
2019,04,30,13,24,16.30
2019,04,30,13,25,16.30
2019,04,30,13,26,16.30
2019,04,30,13,27,16.30
2019,04,30,13,28,16.30
2019,04,30,13,29,16.30
2019,04,30,13,30,16.30
2019,04,30,13,31,16.30
2019,04,30,13,32,16.30
2019,04,30,13,33,16.30
2019,04,30,13,34,16.30
2019,04,30,13,35,16.30
2019,04,30,13,36,16.40
2019,04,30,13,37,16.40
2019,04,30,13,38,16.40
2019,04,30,13,39,16.40
2019,04,30,13,40,16.40
2019,04,30,13,41,16.40
2019,04,30,13,42,16.50
2019,04,30,13,43,16.60
2019,04,30,13,44,16.60
2019,04,30,13,45,16.60
2019,04,30,13,46,16.70
2019,04,30,13,47,16.70
2019,04,30,13,48,16.70
2019,04,30,13,49,16.70
2019,04,30,13,50,16.70
2019,04,30,13,51,16.70
2019,04,30,13,52,16.80
2019,04,30,13,53,16.80
2019,04,30,13,54,16.80
2019,04,30,13,55,16.90
2019,04,30,13,56,16.90
2019,04,30,13,57,16.80
2019,04,30,13,58,16.80
2019,04,30,13,59,16.80
2019,04,30,14,00,16.80
2019,04,30,14,01,16.80
2019,04,30,14,02,16.90
2019,04,30,14,03,16.90
2019,04,30,14,04,16.90
2019,04,30,14,05,17.00
2019,04,30,14,06,17.00
2019,04,30,14,07,17.10
2019,04,30,14,08,17.10
2019,04,30,14,09,17.10
2019,04,30,14,10,17.10
2019,04,30,14,11,17.20
2019,04,30,14,12,17.20
2019,04,30,14,13,17.30
2019,04,30,14,14,17.30
2019,04,30,14,15,17.30
2019,04,30,14,16,17.20
2019,04,30,14,17,17.20
2019,04,30,14,18,17.20
2019,04,30,14,19,17.20
2019,04,30,14,20,17.20
2019,04,30,14,21,17.20
2019,04,30,14,22,17.20
2019,04,30,14,23,17.20
2019,04,30,14,24,17.20
2019,04,30,14,25,17.20
2019,04,30,14,26,17.30
2019,04,30,14,27,17.30
2019,04,30,14,28,17.30
2019,04,30,14,29,17.40
2019,04,30,14,30,17.30
2019,04,30,14,31,17.20
2019,04,30,14,32,17.20
2019,04,30,14,33,17.20
2019,04,30,14,34,17.20
2019,04,30,14,35,17.20
2019,04,30,14,36,17.20
2019,04,30,14,37,17.20
2019,04,30,14,38,17.30
2019,04,30,14,39,17.30
2019,04,30,14,40,17.30
2019,04,30,14,41,17.30
2019,04,30,14,42,17.40
2019,04,30,14,43,17.40
2019,04,30,14,44,17.40
2019,04,30,14,45,17.50
2019,04,30,14,46,17.50
2019,04,30,14,47,17.60
2019,04,30,14,48,17.60
2019,04,30,14,49,17.60
2019,04,30,14,50,17.70
2019,04,30,14,51,17.70
2019,04,30,14,52,17.70
2019,04,30,14,53,17.70
2019,04,30,14,54,17.80
2019,04,30,14,55,17.80
2019,04,30,14,56,17.80
2019,04,30,14,57,17.80
2019,04,30,14,58,17.80
2019,04,30,14,59,17.80
2019,04,30,15,00,17.90
2019,04,30,15,01,18.00
2019,04,30,15,02,18.10
2019,04,30,15,03,18.10
2019,04,30,15,04,18.20
2019,04,30,15,05,18.20
2019,04,30,15,06,18.20
2019,04,30,15,07,18.20
2019,04,30,15,08,18.20
2019,04,30,15,09,18.10
2019,04,30,15,10,18.10
2019,04,30,15,11,18.00
2019,04,30,15,12,18.10
2019,04,30,15,13,18.10
2019,04,30,15,14,18.10
2019,04,30,15,15,18.00
2019,04,30,15,16,17.90
2019,04,30,15,17,17.80
2019,04,30,15,18,17.70
2019,04,30,15,19,17.60
2019,04,30,15,20,17.60
2019,04,30,15,21,17.60
2019,04,30,15,22,17.50
2019,04,30,15,23,17.50
2019,04,30,15,24,17.60
2019,04,30,15,25,17.60
2019,04,30,15,26,17.70
2019,04,30,15,27,17.70
2019,04,30,15,28,17.80
2019,04,30,15,29,17.90
2019,04,30,15,30,17.90
2019,04,30,15,31,17.90
2019,04,30,15,32,17.90
2019,04,30,15,33,17.90
2019,04,30,15,34,17.90
2019,04,30,15,35,17.90
2019,04,30,15,36,18.00
2019,04,30,15,37,18.10
2019,04,30,15,38,18.20
2019,04,30,15,39,18.20
2019,04,30,15,40,18.20
2019,04,30,15,41,18.20
2019,04,30,15,42,18.20
2019,04,30,15,43,18.20
2019,04,30,15,44,18.20
2019,04,30,15,45,18.20
2019,04,30,15,46,18.30
2019,04,30,15,47,18.30
2019,04,30,15,48,18.30
2019,04,30,15,49,18.40
2019,04,30,15,50,18.40
2019,04,30,15,51,18.40
2019,04,30,15,52,18.30
2019,04,30,15,53,18.20
2019,04,30,15,54,18.20
2019,04,30,15,55,18.10
2019,04,30,15,56,18.00
2019,04,30,15,57,17.90
2019,04,30,15,58,17.90
2019,04,30,15,59,17.90
2019,04,30,16,00,18.00
2019,04,30,16,01,18.00
2019,04,30,16,02,18.00
2019,04,30,16,03,18.00
2019,04,30,16,04,18.00
2019,04,30,16,05,18.00
2019,04,30,16,06,17.90
2019,04,30,16,07,17.90
2019,04,30,16,08,17.90
2019,04,30,16,09,17.90
2019,04,30,16,10,17.90
2019,04,30,16,11,17.90
2019,04,30,16,12,17.90
2019,04,30,16,13,17.90
2019,04,30,16,14,18.00
2019,04,30,16,15,18.00
2019,04,30,16,16,18.00
2019,04,30,16,17,17.90
2019,04,30,16,18,17.90
2019,04,30,16,19,17.80
2019,04,30,16,20,17.70
2019,04,30,16,21,17.70
2019,04,30,16,22,17.60
2019,04,30,16,23,17.60
2019,04,30,16,24,17.60
2019,04,30,16,25,17.50
2019,04,30,16,26,17.40
2019,04,30,16,27,17.40
2019,04,30,16,28,17.40
2019,04,30,16,29,17.30
2019,04,30,16,30,17.30
2019,04,30,16,31,17.20
2019,04,30,16,32,17.20
2019,04,30,16,33,17.20
2019,04,30,16,34,17.20
2019,04,30,16,35,17.10
2019,04,30,16,36,17.10
2019,04,30,16,37,17.00
2019,04,30,16,38,17.00
2019,04,30,16,39,16.90
2019,04,30,16,40,16.90
2019,04,30,16,41,16.90
2019,04,30,16,42,16.90
2019,04,30,16,43,16.90
2019,04,30,16,44,16.90
2019,04,30,16,45,16.80
2019,04,30,16,46,16.80
2019,04,30,16,47,16.80
2019,04,30,16,48,16.80
2019,04,30,16,49,16.80
2019,04,30,16,50,16.80
2019,04,30,16,51,16.80
2019,04,30,16,52,16.80
2019,04,30,16,53,16.80
2019,04,30,16,54,16.80
2019,04,30,16,55,16.80
2019,04,30,16,56,16.80
2019,04,30,16,57,16.80
2019,04,30,16,58,16.80
2019,04,30,16,59,16.80
2019,04,30,17,00,16.80
2019,04,30,17,01,16.80
2019,04,30,17,02,16.70
2019,04,30,17,03,16.70
2019,04,30,17,04,16.70
2019,04,30,17,05,16.70
2019,04,30,17,06,16.70
2019,04,30,17,07,16.70
2019,04,30,17,08,16.70
2019,04,30,17,09,16.60
2019,04,30,17,10,16.60
2019,04,30,17,11,16.60
2019,04,30,17,12,16.60
2019,04,30,17,13,16.60
2019,04,30,17,14,16.60
2019,04,30,17,15,16.60
2019,04,30,17,16,16.70
2019,04,30,17,17,16.70
2019,04,30,17,18,16.70
2019,04,30,17,19,16.70
2019,04,30,17,20,16.80
2019,04,30,17,21,16.80
2019,04,30,17,22,16.90
2019,04,30,17,23,16.90
2019,04,30,17,24,17.00
2019,04,30,17,25,17.00
2019,04,30,17,26,17.10
2019,04,30,17,27,17.10
2019,04,30,17,28,17.10
2019,04,30,17,29,17.20
2019,04,30,17,30,17.20
2019,04,30,17,31,17.20
2019,04,30,17,32,17.30
2019,04,30,17,33,17.30
2019,04,30,17,34,17.30
2019,04,30,17,35,17.40
2019,04,30,17,36,17.40
2019,04,30,17,37,17.40
2019,04,30,17,38,17.40
2019,04,30,17,39,17.50
2019,04,30,17,40,17.50
2019,04,30,17,41,17.60
2019,04,30,17,42,17.60